Location: Bergnershof
(48.9468°N, 10.9431°E)
Time: 22:31:36
(UTC+00:00)

Okean 1 - Pass Details

Date: 03 March 2021
Orbit: 539 x 554 km, 82.5° (Epoch: 13 April)

Event Time Altitude Azimuth Distance (km) Brightness Sun altitude
Rises 17:52:46 0° 351° (N) 2,732 7.0 -9.0°
Reaches altitude 10° 17:54:56 10° 352° (N) 1,836 6.1 -9.3°
Maximum altitude 17:58:59 80° 79° (E) 566 3.3 -10.0°
Drops below altitude 10° 18:03:01 10° 168° (SSE) 1,828 5.8 -10.7°
Sets 18:05:10 0° 169° (S) 2,719 6.7 -11.0°
